TimeEDT,TemperatureF,Dew PointF,Humidity,Sea Level PressureIn,VisibilityMPH,Wind Direction,Wind SpeedMPH,Gust SpeedMPH,PrecipitationIn,Events,Conditions,WindDirDegrees,DateUTC
12:15 AM,32.0,29.3,90,29.83,3.0,SSE,5.8,-,N/A,Snow,Light Snow,160,2013-04-13 04:15:00
12:35 AM,32.0,29.7,91,29.82,4.0,SSE,4.6,-,N/A,Snow,Light Snow,160,2013-04-13 04:35:00
12:55 AM,32.0,29.8,92,29.82,7.0,South,6.9,-,N/A,,Overcast,170,2013-04-13 04:55:00
1:15 AM,32.0,29.7,91,29.82,7.0,South,4.6,-,N/A,Snow,Light Snow,170,2013-04-13 05:15:00
1:35 AM,32.0,29.5,90,29.80,10.0,SSE,5.8,-,N/A,,Overcast,150,2013-04-13 05:35:00
1:55 AM,32.0,29.7,91,29.80,10.0,South,5.8,-,N/A,Snow,Light Snow,170,2013-04-13 05:55:00
2:15 AM,32.0,29.1,89,29.78,10.0,SSW,3.5,-,N/A,,Overcast,200,2013-04-13 06:15:00
2:35 AM,32.0,29.3,90,29.80,7.0,SSW,6.9,-,N/A,Snow,Light Snow,200,2013-04-13 06:35:00
2:55 AM,32.0,29.3,90,29.80,7.0,South,6.9,-,N/A,Snow,Light Snow,180,2013-04-13 06:55:00
3:15 AM,32.0,29.1,89,29.79,5.0,South,5.8,-,N/A,Snow,Light Snow,180,2013-04-13 07:15:00
3:35 AM,32.0,29.3,90,29.79,5.0,South,4.6,-,N/A,Snow,Light Snow,170,2013-04-13 07:35:00
3:55 AM,32.0,29.3,90,29.79,10.0,SSE,4.6,-,N/A,,Overcast,160,2013-04-13 07:55:00
4:15 AM,32.0,29.3,90,29.77,10.0,Calm,Calm,-,N/A,,Overcast,0,2013-04-13 08:15:00
4:35 AM,32.0,29.5,90,29.77,10.0,South,4.6,-,N/A,,Overcast,170,2013-04-13 08:35:00
4:55 AM,32.0,29.3,90,29.77,10.0,South,3.5,-,N/A,,Overcast,170,2013-04-13 08:55:00
5:15 AM,32.0,29.3,90,29.77,10.0,South,4.6,-,N/A,,Overcast,170,2013-04-13 09:15:00
5:35 AM,32.0,29.3,90,29.77,10.0,South,4.6,-,N/A,,Overcast,180,2013-04-13 09:35:00
5:55 AM,32.0,29.3,90,29.77,10.0,South,4.6,-,N/A,,Overcast,180,2013-04-13 09:55:00
6:15 AM,32.0,29.1,89,29.77,10.0,South,4.6,-,N/A,Snow,Light Snow,170,2013-04-13 10:15:00
6:35 AM,32.0,29.1,89,29.77,10.0,SSE,4.6,-,N/A,,Overcast,150,2013-04-13 10:35:00
6:55 AM,32.0,29.3,90,29.78,10.0,SSE,4.6,-,N/A,,Overcast,160,2013-04-13 10:55:00
7:15 AM,32.0,29.3,90,29.79,10.0,SSE,4.6,-,N/A,,Overcast,160,2013-04-13 11:15:00
7:35 AM,32.0,29.5,90,29.79,10.0,SSE,4.6,-,N/A,,Overcast,160,2013-04-13 11:35:00
7:55 AM,32.0,29.8,92,29.79,7.0,SSE,3.5,-,N/A,Snow,Light Snow,160,2013-04-13 11:55:00
8:15 AM,32.0,29.8,92,29.79,10.0,South,4.6,-,N/A,Snow,Light Snow,190,2013-04-13 12:15:00
8:35 AM,32.4,29.8,90,29.79,10.0,South,4.6,-,N/A,,Overcast,180,2013-04-13 12:35:00
8:55 AM,32.5,29.8,90,29.79,10.0,South,4.6,-,N/A,,Overcast,170,2013-04-13 12:55:00
9:15 AM,32.7,30.2,90,29.80,10.0,South,3.5,-,N/A,,Overcast,180,2013-04-13 13:15:00
9:35 AM,32.9,30.4,90,29.80,10.0,South,3.5,-,N/A,,Overcast,180,2013-04-13 13:35:00
9:55 AM,33.3,30.6,90,29.80,10.0,Calm,Calm,-,N/A,,Overcast,0,2013-04-13 13:55:00
10:15 AM,34.0,31.1,89,29.80,10.0,South,4.6,-,N/A,,Overcast,180,2013-04-13 14:15:00
10:35 AM,34.7,31.1,87,29.79,10.0,South,5.8,-,N/A,,Overcast,180,2013-04-13 14:35:00
10:55 AM,34.9,31.5,87,29.79,10.0,South,5.8,-,N/A,,Overcast,190,2013-04-13 14:55:00
11:15 AM,35.6,31.6,85,29.80,10.0,South,5.8,-,N/A,,Overcast,190,2013-04-13 15:15:00
11:35 AM,36.0,31.5,84,29.80,10.0,South,5.8,-,N/A,,Overcast,190,2013-04-13 15:35:00
11:55 AM,36.5,31.8,83,29.81,10.0,South,5.8,-,N/A,,Overcast,190,2013-04-13 15:55:00
12:15 PM,36.7,32.0,83,29.80,10.0,SSW,5.8,-,N/A,,Overcast,200,2013-04-13 16:15:00
12:35 PM,37.2,32.0,81,29.80,10.0,South,6.9,-,N/A,,Overcast,190,2013-04-13 16:35:00
12:55 PM,37.9,32.0,79,29.80,10.0,SSE,6.9,-,N/A,,Overcast,160,2013-04-13 16:55:00
1:15 PM,39.2,32.0,75,29.79,10.0,SSE,6.9,-,N/A,,Overcast,150,2013-04-13 17:15:00
1:35 PM,39.6,32.5,76,29.79,10.0,SSW,4.6,-,N/A,,Overcast,200,2013-04-13 17:35:00
1:55 PM,40.1,32.4,74,29.79,10.0,SSW,4.6,-,N/A,,Overcast,210,2013-04-13 17:55:00
2:15 PM,41.0,33.1,73,29.78,10.0,South,5.8,-,N/A,,Overcast,190,2013-04-13 18:15:00
2:35 PM,42.6,33.1,69,29.78,10.0,SSW,5.8,-,N/A,,Mostly Cloudy,200,2013-04-13 18:35:00
2:55 PM,41.4,32.0,69,29.77,10.0,SSW,3.5,-,N/A,,Scattered Clouds,200,2013-04-13 18:55:00
3:15 PM,41.9,32.0,68,29.77,10.0,SSW,3.5,-,N/A,,Mostly Cloudy,200,2013-04-13 19:15:00
3:35 PM,42.8,31.1,63,29.77,10.0,Calm,Calm,-,N/A,,Overcast,0,2013-04-13 19:35:00
3:55 PM,43.0,31.3,63,29.77,10.0,Calm,Calm,-,N/A,,Overcast,0,2013-04-13 19:55:00
4:15 PM,43.2,31.6,64,29.77,10.0,SSW,3.5,-,N/A,,Overcast,200,2013-04-13 20:15:00
4:35 PM,43.0,30.9,62,29.77,10.0,Calm,Calm,-,N/A,,Overcast,0,2013-04-13 20:35:00
4:55 PM,41.9,31.6,67,29.77,10.0,Calm,Calm,-,N/A,,Overcast,0,2013-04-13 20:55:00
5:15 PM,42.1,32.0,67,29.78,10.0,Calm,Calm,-,N/A,,Overcast,0,2013-04-13 21:15:00
5:35 PM,41.4,32.0,69,29.80,10.0,Calm,Calm,-,N/A,,Light Drizzle,0,2013-04-13 21:35:00
5:55 PM,40.1,32.4,74,29.81,7.0,SW,8.1,-,N/A,,Drizzle,230,2013-04-13 21:55:00
6:15 PM,38.7,34.2,84,29.82,10.0,South,4.6,-,N/A,Rain,Light Rain,190,2013-04-13 22:15:00
6:35 PM,38.3,34.2,85,29.83,10.0,Calm,Calm,-,N/A,,Light Drizzle,0,2013-04-13 22:35:00
6:55 PM,37.8,33.8,86,29.82,10.0,Calm,Calm,-,N/A,,Overcast,0,2013-04-13 22:55:00
7:15 PM,38.3,33.8,84,29.83,10.0,Calm,Calm,-,N/A,,Overcast,0,2013-04-13 23:15:00
7:35 PM,37.8,34.2,87,29.84,10.0,South,3.5,-,N/A,,Light Drizzle,180,2013-04-13 23:35:00
7:55 PM,36.7,33.4,88,29.85,10.0,WSW,4.6,-,N/A,,Light Drizzle,240,2013-04-13 23:55:00
8:15 PM,38.1,34.7,87,29.85,4.0,Calm,Calm,-,N/A,Rain,Light Rain,0,2013-04-14 00:15:00
8:35 PM,37.9,34.7,88,29.85,10.0,WSW,3.5,-,N/A,Rain,Rain,250,2013-04-14 00:35:00
8:55 PM,37.9,33.6,84,29.86,4.0,WSW,4.6,-,N/A,Rain,Rain,240,2013-04-14 00:55:00
9:15 PM,36.7,33.3,87,29.88,10.0,SW,5.8,-,N/A,Rain,Light Rain,220,2013-04-14 01:15:00
9:35 PM,36.5,33.3,88,29.88,10.0,SSW,4.6,-,N/A,,Drizzle,200,2013-04-14 01:35:00
9:55 PM,36.1,32.9,88,29.87,10.0,South,3.5,-,N/A,,Overcast,180,2013-04-14 01:55:00
10:15 PM,36.7,32.9,86,29.87,10.0,SE,3.5,-,N/A,,Overcast,130,2013-04-14 02:15:00
10:55 PM,36.0,33.1,89,29.86,10.0,SSE,5.8,-,N/A,,Overcast,160,2013-04-14 02:55:00
11:15 PM,36.0,32.7,88,29.87,10.0,South,4.6,-,N/A,,Overcast,170,2013-04-14 03:15:00
11:35 PM,35.6,32.0,87,29.86,10.0,SSE,4.6,-,N/A,,Scattered Clouds,160,2013-04-14 03:35:00
11:55 PM,35.6,32.0,87,29.86,10.0,SSE,5.8,-,N/A,,Clear,160,2013-04-14 03:55:00